(°C)
18°
19°
22°
25°
29°
32°
35°
(°C)
16°
18°
22°
26°
29°
33°
36°
СИ
СИ
ИСИ
ЮИ
ЮЮИ
Ю
ЮЮЗ
(km/h)
5-11
5-12
3-12
2-10
3-8
3-6
4-9
(mm)
0
0
0
0
0
0
0
(%)
0
0
0
0
0
0
0

Издигане на слънцето

/ 3.1°
sun-icon
UV 9
06:07
21:09
Нарастваща полу-луна (162°)
19:58
04:38

METAR за Янина (LGIO)

Час Условия Температура/
Точка на оросяване
Вятър Видимост Времето Облаци Налягане Промяна Сурови
17°C / 15°C variable 1kt - 1017 - LGIO 230320Z AUTO VRB01KT //// // ////// 17/15 Q1017 RE//
17°C / 15°C variable 0kt - 1017 - LGIO 230250Z AUTO 00000KT //// // ////// 17/15 Q1017 RE//
17°C / 15°C variable 1kt - 1017 - LGIO 230220Z AUTO VRB01KT //// // ////// 17/15 Q1017 RE//
17°C / 15°C variable 1kt - 1017 - LGIO 230150Z AUTO VRB01KT //// // ////// 17/15 Q1017 RE//
18°C / 16°C variable 1kt - 1017 - LGIO 230120Z AUTO VRB01KT //// // ////// 18/16 Q1017 RE//
18°C / 16°C variable 2kt - 1017 - LGIO 230050Z AUTO VRB02KT //// // ////// 18/16 Q1017 RE//
18°C / 16°C variable 0kt - 1017 - LGIO 230020Z AUTO 00000KT //// // ////// 18/16 Q1017 RE//
19°C / 16°C variable 1kt - 1017 - LGIO 222350Z AUTO VRB01KT //// // ////// 19/16 Q1017 RE//
19°C / 16°C variable 0kt - 1017 - LGIO 222320Z AUTO 00000KT //// // ////// 19/16 Q1017 RE//
20°C / 16°C variable 1kt - 1017 - LGIO 222250Z AUTO VRB01KT //// // ////// 20/16 Q1017 RE//
20°C / 16°C variable 0kt - 1017 - LGIO 222220Z AUTO 00000KT //// // ////// 20/16 Q1017 RE//
20°C / 16°C variable 2kt - 1017 - LGIO 222150Z AUTO VRB02KT //// // ////// 20/16 Q1017 RE//
22°C / 16°C variable 1kt - 1017 - LGIO 222120Z AUTO VRB01KT //// // ////// 22/16 Q1017 RE//
23°C / 16°C variable 2kt - 1017 - LGIO 222050Z AUTO VRB02KT //// // ////// 23/16 Q1017 RE//
24°C / 17°C variable 1kt - 1017 - LGIO 222020Z AUTO VRB01KT //// // ////// 24/17 Q1017 RE//
24°C / 16°C variable 0kt - 1017 - LGIO 221950Z AUTO 00000KT //// // ////// 24/16 Q1017 RE//
24°C / 16°C variable 1kt - 1017 - LGIO 221920Z AUTO VRB01KT //// // ////// 24/16 Q1017 RE//
27°C / 16°C 240º variable 220º to 280º 4kt - 1016 - LGIO 221850Z AUTO 24004KT 220V280 //// // ////// 27/16 Q1016 RE//
26°C / 17°C variable 3kt - 1016 - LGIO 221820Z AUTO VRB03KT //// // ////// 26/17 Q1016 RE//
VFR 28°C / 17°C 340º 5kt >10km - Clouds and Visibility OK 1016 - LGIO 221750Z 34005KT CAVOK 28/17 Q1016
30°C / 17°C 310º 6kt - 1015 - LGIO 221720Z AUTO 31006KT //// // ////// 30/17 Q1015 RE//
31°C / 16°C 330º variable 300º to 360º 6kt - 1015 - LGIO 221650Z AUTO 33006KT 300V360 //// // ////// 31/16 Q1015 RE//
33°C / 15°C 290º variable 250º to 320º 4kt - 1015 - LGIO 221620Z AUTO 29004KT 250V320 //// // ////// 33/15 Q1015 RE//
34°C / 16°C variable 3kt - 1015 - LGIO 221550Z AUTO VRB03KT //// // ////// 34/16 Q1015 RE//

17°C / 15°C

[Още]
Вятър variable 1kt
Видимост
Времето -
Облаци
Налягане 1017
Промяна -
Сурови LGIO 230320Z AUTO VRB01KT //// // ////// 17/15 Q1017 RE//

17°C / 15°C

[Още]
Вятър variable 0kt
Видимост
Времето -
Облаци
Налягане 1017
Промяна -
Сурови LGIO 230250Z AUTO 00000KT //// // ////// 17/15 Q1017 RE//

17°C / 15°C

[Още]
Вятър variable 1kt
Видимост
Времето -
Облаци
Налягане 1017
Промяна -
Сурови LGIO 230220Z AUTO VRB01KT //// // ////// 17/15 Q1017 RE//

17°C / 15°C

[Още]
Вятър variable 1kt
Видимост
Времето -
Облаци
Налягане 1017
Промяна -
Сурови LGIO 230150Z AUTO VRB01KT //// // ////// 17/15 Q1017 RE//

18°C / 16°C

[Още]
Вятър variable 1kt
Видимост
Времето -
Облаци
Налягане 1017
Промяна -
Сурови LGIO 230120Z AUTO VRB01KT //// // ////// 18/16 Q1017 RE//

18°C / 16°C

[Още]
Вятър variable 2kt
Видимост
Времето -
Облаци
Налягане 1017
Промяна -
Сурови LGIO 230050Z AUTO VRB02KT //// // ////// 18/16 Q1017 RE//

18°C / 16°C

[Още]
Вятър variable 0kt
Видимост
Времето -
Облаци
Налягане 1017
Промяна -
Сурови LGIO 230020Z AUTO 00000KT //// // ////// 18/16 Q1017 RE//

19°C / 16°C

[Още]
Вятър variable 1kt
Видимост
Времето -
Облаци
Налягане 1017
Промяна -
Сурови LGIO 222350Z AUTO VRB01KT //// // ////// 19/16 Q1017 RE//

19°C / 16°C

[Още]
Вятър variable 0kt
Видимост
Времето -
Облаци
Налягане 1017
Промяна -
Сурови LGIO 222320Z AUTO 00000KT //// // ////// 19/16 Q1017 RE//

20°C / 16°C

[Още]
Вятър variable 1kt
Видимост
Времето -
Облаци
Налягане 1017
Промяна -
Сурови LGIO 222250Z AUTO VRB01KT //// // ////// 20/16 Q1017 RE//

20°C / 16°C

[Още]
Вятър variable 0kt
Видимост
Времето -
Облаци
Налягане 1017
Промяна -
Сурови LGIO 222220Z AUTO 00000KT //// // ////// 20/16 Q1017 RE//

20°C / 16°C

[Още]
Вятър variable 2kt
Видимост
Времето -
Облаци
Налягане 1017
Промяна -
Сурови LGIO 222150Z AUTO VRB02KT //// // ////// 20/16 Q1017 RE//

22°C / 16°C

[Още]
Вятър variable 1kt
Видимост
Времето -
Облаци
Налягане 1017
Промяна -
Сурови LGIO 222120Z AUTO VRB01KT //// // ////// 22/16 Q1017 RE//

23°C / 16°C

[Още]
Вятър variable 2kt
Видимост
Времето -
Облаци
Налягане 1017
Промяна -
Сурови LGIO 222050Z AUTO VRB02KT //// // ////// 23/16 Q1017 RE//

24°C / 17°C

[Още]
Вятър variable 1kt
Видимост
Времето -
Облаци
Налягане 1017
Промяна -
Сурови LGIO 222020Z AUTO VRB01KT //// // ////// 24/17 Q1017 RE//

24°C / 16°C

[Още]
Вятър variable 0kt
Видимост
Времето -
Облаци
Налягане 1017
Промяна -
Сурови LGIO 221950Z AUTO 00000KT //// // ////// 24/16 Q1017 RE//

24°C / 16°C

[Още]
Вятър variable 1kt
Видимост
Времето -
Облаци
Налягане 1017
Промяна -
Сурови LGIO 221920Z AUTO VRB01KT //// // ////// 24/16 Q1017 RE//

27°C / 16°C

[Още]
Вятър 240º variable 220º to 280º 4kt
Видимост
Времето -
Облаци
Налягане 1016
Промяна -
Сурови LGIO 221850Z AUTO 24004KT 220V280 //// // ////// 27/16 Q1016 RE//

26°C / 17°C

[Още]
Вятър variable 3kt
Видимост
Времето -
Облаци
Налягане 1016
Промяна -
Сурови LGIO 221820Z AUTO VRB03KT //// // ////// 26/17 Q1016 RE//

VFR

28°C / 17°C

[Още]
Вятър 340º 5kt
Видимост >10km
Времето -
Облаци Clouds and Visibility OK
Налягане 1016
Промяна -
Сурови LGIO 221750Z 34005KT CAVOK 28/17 Q1016

30°C / 17°C

[Още]
Вятър 310º 6kt
Видимост
Времето -
Облаци
Налягане 1015
Промяна -
Сурови LGIO 221720Z AUTO 31006KT //// // ////// 30/17 Q1015 RE//

31°C / 16°C

[Още]
Вятър 330º variable 300º to 360º 6kt
Видимост
Времето -
Облаци
Налягане 1015
Промяна -
Сурови LGIO 221650Z AUTO 33006KT 300V360 //// // ////// 31/16 Q1015 RE//

33°C / 15°C

[Още]
Вятър 290º variable 250º to 320º 4kt
Видимост
Времето -
Облаци
Налягане 1015
Промяна -
Сурови LGIO 221620Z AUTO 29004KT 250V320 //// // ////// 33/15 Q1015 RE//

34°C / 16°C

[Още]
Вятър variable 3kt
Видимост
Времето -
Облаци
Налягане 1015
Промяна -
Сурови LGIO 221550Z AUTO VRB03KT //// // ////// 34/16 Q1015 RE//

TAF за Янина (LGIO)

From till


From till Wind variable 3kt. Visibility 10km or more. Nil Significant Cloud.
Becoming from till Wind variable 3kt. Visibility 10km or more. Few Clouds 3000ft. Scattered Clouds 8000ft.

Сурови: TAF LGIO 230200Z 2303/2312 VRB03KT CAVOK BECMG 2309/2311 FEW030 SCT080

Актуални сателитни и дъждовни снимки за Янина, Гърция

Маркерът за локация е поставен върху Янина. [Още]

Сателитното изображение в реално време съчетава видимата светлина през деня с инфрачервеното лъчение през нощта. През нощта изображението не е тъмно, тъй като инфрачервеното лъчение може да открива температурни разлики. За съжаление ниските облаци и мъглата са трудни за разграничаване от температурите на земята и затова могат да бъдат почти невидими през нощта. Сателитните изображения на Meteosat за Европа се актуализират в реално време на всеки 5 минути. Изображенията GOES-16/GOES-17 (Северна и Южна Америка) и Химавари (Азия) се актуализират на всеки 10 минути.

Валежите се изчисляват на база информация от радари и сателити. Нощните прогнози за валежи от сателити са с по-ниска прецизност от дневните прогнози. Оранжевите кръстове маркират локациите, на които са засечени светкавици (над Европа).

Всички права запазени 2021 EUMETSAT / meteoblue. Данни за светкавици, предоставени от nowcast.

Радар и валежи в момента за Янина

Маркерът за локация обозначава Янина. Анимацията показва Радара за валежи за последния час, както и прогноза за 1h. Възможно е незначителните превалявания да не бъдат засечени от радара. Интензивността на валежите е представена в цветна скала от светлосиньо до тъмнолилаво.

Настояща метеорологична обстановка и предупреждения

EUMETNET – MeteoAlarm

pictomap

Източник: HNMS

Възможни са времеви забавяния между този уебсайт и www.meteoalarm.eu За най-актуалните данни за нивата на предупреждение, моля изполвайте www.meteoalarm.eu.